[[{"header":{"parameterUnit":"m.s-1","parameterCategory":1,"la1":30.2991,"la2":30.254,"lo1":-89.0895,"lo2":-89.0444,"dy":0.0017,"dx":0.0017,"nx":28,"ny":28,"refTime":"2024-12-11T03:00:00:Z","depth":0,"parameterNumber":2,"parameterNumberName":"U-component_of_WINDS"},"data":[0,0,0,0,0,0,0,0,0,0,0,0,0,0,0,0,0,0,0,0,0,0,0,0,0,0,0,0,0,0,0,0,0,0,0,0,0,0,0,0,0,0,0,0,0,0,0,0,0,0,0,0,0,0,0,0,0,0,-2.3403,-2.3403,0,-2.3402,-2.3402,-2.3402,-2.3351,-2.335,-2.3348,-2.3347,-2.3349,-2.3351,-2.3352,0,0,0,0,0,0,0,0,0,0,0,0,0,-2.3361,-2.3362,-2.3403,-2.3403,-2.3403,-2.3402,-2.3402,-2.3402,-2.3351,-2.335,-2.3348,-2.3347,-2.3349,-2.3351,-2.3352,0,0,0,0,0,0,0,0,0,0,0,0,0,-2.3372,-2.3363,-2.3403,-2.3377,-2.3375,-2.3402,-2.3402,-2.3402,-2.3352,-2.335,-2.3348,-2.3346,-2.3349,-2.335,-2.3352,-2.3405,0,0,-2.3358,-2.3359,0,0,0,0,0,0,0,0,-2.3372,-2.3374,-2.3381,-2.3379,-2.3376,-2.3375,-2.3389,-2.3403,-2.3352,-2.3361,-2.3347,-2.3345,-2.336,-2.3361,-2.3365,-2.3405,-2.3405,-2.3359,-2.336,-2.3361,-2.3361,0,0,0,0,0,0,0,-2.3371,-2.3374,-2.3403,-2.3381,-2.3378,-2.3366,-2.3366,-2.3391,-2.3372,-2.336,-2.3356,-2.3357,-2.3358,-2.3363,-2.3365,-2.3405,-2.3359,-2.336,-2.3362,-2.3362,-2.349,-2.3492,0,0,0,0,0,0,-2.3373,-2.3373,-2.3403,-2.3403,-2.3369,-2.3369,-2.3368,-2.3377,-2.3371,-2.3368,-2.3358,-2.3354,-2.3361,-2.3363,-2.3365,-2.3427,-2.3361,-2.3363,-2.3364,-2.3488,-2.3491,-2.3493,0,0,0,0,0,0,-2.3373,-2.3376,-2.3403,-2.3387,-2.3389,-2.3372,-2.3383,-2.3378,-2.3384,-2.337,-2.3367,-2.3367,-2.3359,-2.3362,-2.3396,-2.3426,-2.3363,-2.3365,-2.3485,-2.3489,-2.3492,-2.3552,0,0,0,0,0,0,-2.3372,-2.3377,-2.3396,-2.3388,-2.339,-2.3433,-2.3384,-2.338,-2.3387,-2.3381,-2.3377,-2.3375,-2.3358,-2.3393,-2.3398,-2.3428,-2.3367,-2.3482,-2.3487,-2.3491,-2.3547,-2.3557,-2.3565,0,0,0,0,0,-2.337,-2.3413,-2.3397,-2.3401,-2.3414,-2.3435,-2.3437,-2.3416,-2.3389,-2.3409,-2.3401,-2.3375,-2.3422,-2.3397,-2.3402,-2.3433,-2.348,-2.3486,-2.349,-2.3543,-2.3555,-2.3565,0,0,0,0,0,0,-2.3426,-2.3412,-2.3394,-2.3435,-2.3436,-2.3426,-2.3451,-2.3429,-2.3438,-2.3433,-2.3407,-2.3407,-2.3445,-2.3442,-2.3414,-2.3484,-2.3447,-2.3453,-2.3485,-2.3496,-2.3505,-2.3506,-2.3368,0,0,0,0,0,-2.3443,-2.3461,-2.3447,-2.3485,-2.3486,-2.3468,-2.3477,-2.346,-2.3461,-2.3462,-2.3456,-2.3458,-2.3474,-2.3485,-2.3498,-2.3546,-2.3545,-2.357,-2.3579,-2.3587,-2.3593,-2.3619,-2.3631,-2.3509,-2.3509,-2.3509,0,0,-2.3479,-2.3473,-2.3486,-2.3496,-2.3495,-2.3515,-2.3469,-2.3492,-2.3507,-2.3466,-2.3497,-2.3493,-2.3494,-2.3536,-2.3553,-2.3534,-2.3626,-2.3593,-2.3599,-2.3601,-2.3626,-2.3637,-2.3647,-2.3513,-2.3512,-2.3511,0,0,-2.3554,-2.3551,-2.3582,-2.3582,-2.3581,-2.3569,-2.3577,-2.357,-2.3565,-2.3596,-2.3566,-2.3583,-2.361,-2.3613,-2.3618,-2.3694,-2.3671,-2.3699,-2.3747,-2.3773,-2.3782,-2.3791,-2.3819,-2.383,-2.3704,-2.3705,-2.3705,0,-2.3599,-2.3626,-2.3601,-2.3626,-2.3632,-2.3595,-2.3627,-2.3629,-2.3633,-2.3638,-2.3616,-2.365,-2.3648,-2.369,-2.3708,-2.3713,-2.3722,-2.37,-2.3783,-2.3791,-2.3798,-2.3825,-2.3836,-2.3708,-2.3708,-2.3707,-2.3707,0,-2.3682,-2.3701,-2.3727,-2.3731,-2.374,-2.3768,-2.3749,-2.3761,-2.3743,-2.3734,-2.3767,-2.3763,-2.3775,-2.3784,-2.3767,-2.3824,-2.3812,-2.3787,-2.3749,-2.3814,-2.3839,-2.3849,-2.3713,-2.3712,-2.3711,-2.371,0,0,-2.3793,-2.3783,-2.3793,-2.3795,-2.3791,-2.3807,-2.3833,-2.3845,-2.3856,-2.386,-2.3883,-2.3906,-2.3883,-2.3889,-2.3872,-2.3895,-2.3957,-2.3867,-2.3866,-2.3885,-2.4021,-2.4041,-2.4054,-2.3941,-2.3943,-2.3944,-2.4021,0,-2.3867,-2.3912,-2.3891,-2.3939,-2.3958,-2.3922,-2.3946,-2.3947,-2.3939,-2.3954,-2.3945,-2.3962,-2.3929,-2.3932,-2.3953,-2.3945,-2.3984,-2.3939,-2.3964,-2.3965,-2.3967,-2.4066,-2.4088,-2.4161,-2.4031,-2.4032,-2.4034,0,-2.396,-2.3967,-2.4017,-2.4011,-2.4018,-2.4039,-2.4048,-2.4063,-2.4063,-2.4056,-2.4062,-2.404,-2.4067,-2.4028,-2.4066,-2.4036,-2.4045,-2.4042,-2.4045,-2.4048,-2.4005,-2.4074,-2.4183,-2.4195,-2.4048,-2.4047,-2.4046,0,-2.4038,-2.406,-2.4093,-2.4096,-2.4089,-2.4105,-2.4103,-2.4101,-2.411,-2.4118,-2.4123,-2.4134,-2.4141,-2.4151,-2.4133,-2.4106,-2.4174,-2.4133,-2.417,-2.4171,-2.4188,-2.4187,-2.4302,-2.4191,-2.419,-2.419,-2.419,0,-2.4124,-2.4157,-2.4129,-2.4149,-2.4185,-2.416,-2.4196,-2.419,-2.4189,-2.4208,-2.4178,-2.4197,-2.4172,-2.4189,-2.4175,-2.421,-2.4213,-2.4208,-2.4205,-2.4212,-2.4213,-2.4219,-2.4214,-2.4193,-2.4192,-2.4192,-2.4191,0,-2.4219,-2.4201,-2.4235,-2.4225,-2.4223,-2.425,-2.4242,-2.4261,-2.425,-2.4275,-2.428,-2.4263,-2.4282,-2.4265,-2.4282,-2.4273,-2.432,-2.4308,-2.432,-2.4317,-2.4355,-2.4353,-2.4479,-2.4495,-2.4372,-2.4373,-2.4374,0,-2.4275,-2.4299,-2.4292,-2.4303,-2.4302,-2.4319,-2.4328,-2.4304,-2.4314,-2.4317,-2.4336,-2.4351,-2.4363,-2.4394,-2.4385,-2.4398,-2.4388,-2.4431,-2.439,-2.4397,-2.4391,-2.439,-2.4393,-2.444,-2.4442,-2.4443,-2.4444,0,-2.4379,-2.4369,-2.4382,-2.4392,-2.4402,-2.4409,-2.4414,-2.4424,-2.44,-2.4413,-2.4431,-2.444,-2.4458,-2.4474,-2.4485,-2.4484,-2.4461,-2.4457,-2.4466,-2.4475,-2.4482,-2.448,-2.4345,-2.4454,-2.4453,-2.4453,-2.4452,-2.4452,-2.4457,-2.4478,-2.4476,-2.4491,-2.4492,-2.4497,-2.4515,-2.4506,-2.452,-2.4532,-2.4517,-2.454,-2.4541,-2.4552,-2.4554,-2.4572,-2.4554,-2.4567,-2.4571,-2.4575,-2.4582,-2.4477,-2.4574,-2.4573,-2.4573,-2.4573,-2.4572,0,-2.4561,-2.4558,-2.4572,-2.4579,-2.4592,-2.4567,-2.4571,-2.4583,-2.4603,-2.4605,-2.4617,-2.4639,-2.4654,-2.4646,-2.466,-2.4676,-2.4666,-2.4681,-2.468,-2.4681,-2.4596,-2.4587,-2.4689,-2.4689,-2.4689,-2.4689,-2.4689,-2.4689,-2.4616,-2.4649,-2.4639,-2.4673,-2.4669,-2.4691,-2.4695,-2.47,-2.4702,-2.4727,-2.474,-2.4733,-2.4731,-2.4745,-2.4759,-2.4756,-2.4764,-2.4783,-2.4776,-2.4698,-2.4687,-2.4676,-2.4667,-2.4784,-2.4784,-2.486,-2.486,-2.4861]},{"header":{"parameterUnit":"m.s-1","parameterCategory":1,"la1":30.2991,"la2":30.254,"lo1":-89.0895,"lo2":-89.0444,"dy":0.0017,"dx":0.0017,"nx":28,"ny":28,"refTime":"2024-12-11T03:00:00:Z","depth":0,"parameterNumber":3,"parameterNumberName":"V-component_of_WINDS"},"data":[0,0,0,0,0,0,0,0,0,0,0,0,0,0,0,0,0,0,0,0,0,0,0,0,0,0,0,0,0,0,0,0,0,0,0,0,0,0,0,0,0,0,0,0,0,0,0,0,0,0,0,0,0,0,0,0,0,0,-1.7725,-1.7725,0,-1.7763,-1.7763,-1.7763,-1.7755,-1.7755,-1.7754,-1.7753,-1.779,-1.7791,-1.7793,0,0,0,0,0,0,0,0,0,0,0,0,0,-1.7643,-1.7645,-1.7725,-1.7725,-1.7726,-1.7763,-1.7763,-1.7764,-1.7755,-1.7755,-1.7754,-1.7753,-1.7789,-1.7791,-1.7793,0,0,0,0,0,0,0,0,0,0,0,0,0,-1.768,-1.7645,-1.7725,-1.7726,-1.7727,-1.7762,-1.7763,-1.7764,-1.7756,-1.7755,-1.7753,-1.7753,-1.7788,-1.7791,-1.7793,-1.7829,0,0,-1.7801,-1.7802,0,0,0,0,0,0,0,0,-1.7678,-1.7683,-1.7726,-1.7726,-1.7727,-1.7753,-1.7748,-1.7786,-1.7756,-1.7745,-1.7753,-1.7752,-1.7778,-1.7781,-1.7791,-1.7831,-1.7832,-1.7801,-1.7802,-1.7803,-1.7804,0,0,0,0,0,0,0,-1.7675,-1.7681,-1.774,-1.7726,-1.7727,-1.7724,-1.7728,-1.7755,-1.7767,-1.7745,-1.7745,-1.775,-1.7778,-1.7788,-1.7791,-1.7833,-1.7801,-1.7803,-1.7804,-1.7805,-1.7905,-1.7906,0,0,0,0,0,0,-1.7672,-1.7679,-1.7738,-1.7741,-1.7699,-1.7726,-1.7731,-1.7746,-1.7766,-1.7769,-1.7751,-1.7749,-1.7785,-1.7789,-1.7793,-1.7837,-1.7803,-1.7806,-1.7807,-1.7903,-1.7905,-1.7906,0,0,0,0,0,0,-1.7671,-1.7678,-1.7737,-1.771,-1.7717,-1.7729,-1.7746,-1.7747,-1.7757,-1.777,-1.7772,-1.7759,-1.7784,-1.7789,-1.782,-1.7838,-1.7807,-1.7809,-1.7902,-1.7904,-1.7905,-1.7925,0,0,0,0,0,0,-1.7668,-1.7677,-1.7692,-1.771,-1.7719,-1.7765,-1.7747,-1.7749,-1.7762,-1.776,-1.7779,-1.7781,-1.7784,-1.7817,-1.7823,-1.7841,-1.7811,-1.7901,-1.7903,-1.7905,-1.7923,-1.7927,-1.7931,0,0,0,0,0,-1.7665,-1.7695,-1.7692,-1.77,-1.7737,-1.7766,-1.7771,-1.7774,-1.7763,-1.7777,-1.7786,-1.778,-1.7835,-1.782,-1.7827,-1.7846,-1.7899,-1.7902,-1.7905,-1.7921,-1.7926,-1.7931,0,0,0,0,0,0,-1.7677,-1.7697,-1.7695,-1.7731,-1.7747,-1.7764,-1.7783,-1.778,-1.7798,-1.7796,-1.7799,-1.7803,-1.7835,-1.7843,-1.7826,-1.7882,-1.7865,-1.787,-1.7876,-1.7881,-1.7885,-1.7883,-1.7813,0,0,0,0,0,-1.7684,-1.7707,-1.7723,-1.7753,-1.7761,-1.7771,-1.7783,-1.7785,-1.7801,-1.7807,-1.7818,-1.7833,-1.7854,-1.7867,-1.7887,-1.7923,-1.7928,-1.794,-1.7944,-1.7947,-1.7951,-1.7971,-1.7977,-1.7915,-1.7915,-1.7915,0,0,-1.7698,-1.7712,-1.7726,-1.7756,-1.7768,-1.7791,-1.7776,-1.7801,-1.7818,-1.7811,-1.7842,-1.785,-1.7867,-1.7901,-1.7916,-1.7908,-1.7969,-1.795,-1.7953,-1.7955,-1.7975,-1.7981,-1.7986,-1.7917,-1.7916,-1.7916,0,0,-1.7737,-1.7749,-1.7777,-1.779,-1.7809,-1.7815,-1.7821,-1.7839,-1.7845,-1.7875,-1.7871,-1.789,-1.7926,-1.7938,-1.7949,-1.7992,-1.7988,-1.7998,-1.802,-1.804,-1.8045,-1.8049,-1.8065,-1.8071,-1.8002,-1.8002,-1.8002,0,-1.7752,-1.7787,-1.7791,-1.7817,-1.783,-1.7825,-1.7853,-1.7864,-1.7889,-1.7898,-1.7888,-1.7933,-1.7944,-1.7982,-1.7992,-1.8001,-1.8009,-1.7997,-1.8044,-1.8048,-1.8052,-1.8068,-1.8074,-1.8003,-1.8003,-1.8003,-1.8003,0,-1.7806,-1.783,-1.785,-1.7875,-1.789,-1.7916,-1.7923,-1.7938,-1.7938,-1.7944,-1.7975,-1.7988,-1.8011,-1.802,-1.8019,-1.8057,-1.8052,-1.8043,-1.8027,-1.806,-1.8074,-1.808,-1.8005,-1.8004,-1.8004,-1.8004,0,0,-1.7854,-1.788,-1.7887,-1.7899,-1.792,-1.7938,-1.7964,-1.7987,-1.8,-1.8016,-1.8038,-1.8068,-1.806,-1.8073,-1.8074,-1.8091,-1.8125,-1.808,-1.8081,-1.8089,-1.8168,-1.8176,-1.8182,-1.8122,-1.8123,-1.8124,-1.8167,0,-1.7895,-1.7942,-1.7945,-1.7987,-1.801,-1.8005,-1.8028,-1.8043,-1.8049,-1.8069,-1.8075,-1.8097,-1.8085,-1.8093,-1.8109,-1.8117,-1.8141,-1.8114,-1.8142,-1.8143,-1.814,-1.819,-1.8198,-1.8238,-1.8173,-1.8174,-1.8174,0,-1.7949,-1.7969,-1.8014,-1.8032,-1.8041,-1.8062,-1.8083,-1.8102,-1.8118,-1.8121,-1.8136,-1.8134,-1.816,-1.8142,-1.8178,-1.8159,-1.817,-1.8176,-1.8178,-1.8182,-1.8162,-1.8196,-1.8251,-1.8258,-1.8183,-1.8183,-1.8182,0,-1.7981,-1.8018,-1.805,-1.806,-1.8081,-1.8096,-1.8105,-1.8121,-1.8134,-1.8152,-1.8161,-1.8182,-1.8193,-1.8209,-1.8213,-1.8199,-1.8249,-1.8231,-1.8252,-1.8253,-1.8264,-1.8264,-1.8323,-1.8269,-1.8269,-1.8269,-1.8269,0,-1.8028,-1.8056,-1.8065,-1.8085,-1.8116,-1.8119,-1.8149,-1.8157,-1.8171,-1.8192,-1.8188,-1.8207,-1.821,-1.823,-1.8233,-1.8263,-1.8267,-1.8271,-1.8272,-1.8272,-1.8272,-1.8281,-1.8279,-1.8271,-1.827,-1.827,-1.827,0,-1.8069,-1.8077,-1.8111,-1.8129,-1.8134,-1.8156,-1.8171,-1.8189,-1.8195,-1.8221,-1.8228,-1.8237,-1.826,-1.8265,-1.8292,-1.8294,-1.833,-1.8327,-1.8325,-1.8325,-1.8347,-1.8345,-1.8415,-1.8425,-1.8363,-1.8364,-1.8364,0,-1.8099,-1.8121,-1.8141,-1.8155,-1.8166,-1.8188,-1.8202,-1.8206,-1.8221,-1.8241,-1.8257,-1.828,-1.8299,-1.8336,-1.8345,-1.8365,-1.8364,-1.8387,-1.8367,-1.8367,-1.8366,-1.8365,-1.8367,-1.8391,-1.8392,-1.8392,-1.8393,0,-1.8152,-1.8155,-1.8176,-1.8199,-1.8216,-1.8234,-1.825,-1.8262,-1.8267,-1.8284,-1.8308,-1.8323,-1.8351,-1.8374,-1.8395,-1.8403,-1.8399,-1.8399,-1.8405,-1.8407,-1.8405,-1.8407,-1.8337,-1.8397,-1.8397,-1.8397,-1.8396,-1.8396,-1.819,-1.8209,-1.8227,-1.825,-1.8263,-1.8279,-1.8298,-1.8306,-1.8327,-1.8351,-1.8351,-1.8378,-1.8393,-1.8421,-1.8431,-1.8451,-1.8444,-1.8453,-1.8455,-1.8458,-1.8461,-1.8401,-1.8455,-1.8455,-1.8454,-1.8454,-1.8454,0,-1.8243,-1.8255,-1.8276,-1.8301,-1.8319,-1.8314,-1.8332,-1.8348,-1.8372,-1.8387,-1.8405,-1.8433,-1.8455,-1.8466,-1.8487,-1.8502,-1.85,-1.8507,-1.8507,-1.8509,-1.8465,-1.8458,-1.8508,-1.8508,-1.8508,-1.8508,-1.8508,-1.8508,-1.8274,-1.8306,-1.8311,-1.835,-1.836,-1.8387,-1.8398,-1.8413,-1.8425,-1.8457,-1.8476,-1.8482,-1.8495,-1.8518,-1.8538,-1.854,-1.8549,-1.8557,-1.8559,-1.8518,-1.8512,-1.8507,-1.8501,-1.8559,-1.8559,-1.8601,-1.8602,-1.8602]}]]